Flag for Greece Weather past 2 weeks in Patras, Greece

Now
91 °F

Passing clouds.


Feels Like: 100 °F
Forecast: 70 / 100 °F
Wind: 5 mph from Southwest

Location: Araxos Airport

Current Time: Jul 29, 2015 at 4:56:09 PM

Latest Report: Jul 29, 2015 at 4:20 PM


Visibility: N/A

Pressure: 29.74 "Hg

Humidity: 56%

Dew point: 73 °F

Location of PatrasLocation

Historic Weather in Patras — Graph

°F

Patras temperature yesterday

Maximum temperature yesterday: 91 °F (at 1:20 PM)
Minimum temperature yesterday: 72 °F (at 5:50 AM)
Average temperature yesterday: 84 °F

Past Weeks' High & Low Weather Summary

 TemperatureHumidityPressure
High102 °F (Jul 21, 4:50 PM)100% (Jul 26, 6:50 AM)30.01 "Hg (Jul 26, 6:50 AM)
Low68 °F (Jul 16, 5:50 AM)15% (Jul 19, 2:50 PM)29.71 "Hg (Jul 27, 6:20 PM)
Average86 °F52%29.83 "Hg
* Reported Jul 14 3:20 PM — Jul 29 3:50 PM, Patras, Weather by CustomWeather, © 2015

Note: Actual official high and low records may vary slightly from our data, if they occured in-between our weather recording intervals... More about our weather records

Advertising

Patras weather history for previous 24 hours

 ConditionsComfort  
Time TempWeatherWind HumidityBarometerVisibility
3:50 PM
Wed, Jul 29
90 °FPassing clouds.8 mph59%29.74 "HgN/A
3:20 PM91 °FPassing clouds.8 mph56%29.74 "HgN/A
2:50 PM91 °FPassing clouds.8 mph52%29.74 "HgN/A
2:20 PM91 °FPassing clouds.8 mph56%29.74 "HgN/A
1:50 PM90 °FPassing clouds.7 mph63%29.74 "HgN/A
1:20 PM91 °FPassing clouds.7 mph56%29.74 "HgN/A
12:50 PM91 °FPassing clouds.5 mph49%29.74 "HgN/A
12:20 PM91 °FSunny.3 mph49%29.74 "Hg10 mi
11:50 AM90 °FSunny.3 mph59%29.74 "Hg10 mi
11:20 AM90 °FSunny.3 mph63%29.74 "Hg10 mi
10:20 AM88 °FSunny.No wind66%29.74 "Hg10 mi
9:50 AM86 °FSunny.No wind70%29.74 "Hg10 mi
9:20 AM82 °FSunny.No wind79%29.74 "Hg10 mi
8:50 AM81 °FSunny.No wind84%29.74 "Hg10 mi
8:20 AM79 °FSunny.No wind84%29.74 "Hg10 mi
7:50 AM77 °FSunny.No wind89%29.74 "Hg10 mi
7:20 AM73 °FClear.No wind94%29.74 "Hg10 mi
6:50 AM72 °FClear.No wind100%29.74 "Hg10 mi
5:50 AM72 °FClear.No wind94%29.74 "Hg10 mi
3:50 AM73 °FClear.No wind89%29.74 "Hg10 mi
2:50 AM73 °FClear.No wind89%29.74 "Hg10 mi
12:50 AM77 °FClear.No wind83%29.77 "Hg10 mi
11:50 PM
Tue, Jul 28
79 °FClear.No wind89%29.77 "Hg10 mi
10:50 PM81 °FClear.No wind84%29.74 "Hg10 mi
9:50 PM81 °FClear.No wind84%29.74 "Hg10 mi
8:50 PM82 °FSunny.No wind74%29.74 "Hg10 mi
8:20 PM84 °FSunny.5 mph70%29.74 "Hg10 mi
7:50 PM86 °FSunny.3 mph66%29.71 "Hg10 mi
7:20 PM88 °FPassing clouds.6 mph62%29.71 "HgN/A
6:50 PM88 °FPassing clouds.8 mph66%29.71 "HgN/A
6:20 PM88 °FPassing clouds.7 mph62%29.71 "HgN/A
5:50 PM90 °FPassing clouds.6 mph59%29.71 "HgN/A
5:20 PM90 °FPassing clouds.5 mph59%29.71 "HgN/A
4:50 PM90 °FPassing clouds.7 mph59%29.71 "HgN/A
4:20 PM90 °FPassing clouds.6 mph63%29.71 "HgN/A
Weather by CustomWeather, © 2015

See weather overviewHow to use our weather pages